User: anonymous   Login
Location: Unspecified
(0.0000°N, 0.0000°E)
Time: 22:26:38
(UTC+00:00)
Language:

STARLINK-4809 - Orbit

View from above orbital plane
View from above orbital plane
View from above satellite
View from above satellite

Ground track
Ground track

The orbit is defined by the following mean orbital elements,

1 53857U          26145.43581698 +.00000000 +00000-0 -60901-4 0 00004
2 53857  53.2131 309.1715 0001236  93.1039 267.0094 15.08844229    09
Epoch (UTC): 25 May 2026 10:27:34
Eccentricity: 0.0001236
inclination: 53.2131°
perigee height: 539 km
apogee height: 541 km
right ascension of ascending node: 309.1715°
argument of perigee: 93.1039°
revolutions per day: 15.08844229
mean anomaly at epoch: 267.0094°

The dashed part of the orbit path shows where the satellite is in the earth's shadow,  

DLR